Погода в Белом Городке

Россия / Тверская область     56°57′50″N   37°31′03″E
темп.,
°C
ветер,
м/с
пор.,
м/с
влажн.,
%
обл.,
%
осадки,
мм/ч
давл.,
гПа
погр.,
м
21 января, пт
пт2100:00−3ю61395100 0.8 998775
03:00−3ю51295100 1.5 998663
06:00−4ю51193100 0.1 998554
09:00−5ююв41093100 0.1 999387
12:00−5юв41091100 0.0 999439
15:00−6юв4995100 0.6 998509
18:00−6юв3995100 1.6 998539
21:00−7юв3895100 2.8 998459
22 января, сб
сб2200:00−7юв3796100 0.6 1000289
03:00−7вюв3795100 0.9 1001285
06:00−11в279886 0.0 1003121
09:00−10в389680 0.1 1005194
12:00−7в3793100 0.3 1007372
15:00−6в3695100 0.8 1009447
18:00−7в379673 0.2 1012245
21:00−8всв249786 0.3 1015106
23 января, вс
вс2300:00−13всв2210083 0.0 101718
03:00−17всв1110086 0.1 10209
06:00−17всв119983 0.1 10229
09:00−19ссв1110091 0.1 10259
12:00−11в009588 0.0 102795
15:00−9сз119556 0.1 102933
18:00−16ссв009970 0.0 10329
21:00−19с0010089 0.0 10359
24 января, пн
пн2400:00−20ю1110095 0.0 10369
03:00−21ссз11100100 0.0 10389
06:00−21ююз11100100 0.0 10389
09:00−22ююз11100100 0.0 10399
12:00−12юз119580 0.0 103888
15:00−10ююз12955 0.0 1036107
18:00−17ююв1110077 0.0 10369
21:00−19ю22100100 0.0 103517
25 января, вт
вт2500:00−16ю269977 0.0 103394
03:00−16ююз269980 0.0 103184
06:00−15ююз389993 0.0 1028139
09:00−15ю389866 0.1 1026152
12:00−10ю410938 0.0 1023278
15:00−8ю412896 0.0 1020444
18:00−10ю41391100 0.0 1019344
21:00−11ю4129399 0.0 1018358